星链-35919(STARLINK-35919)

导读

STARLINK-35919是美国星链计划的低轨卫星,于2025年12月4日发射升空,是SpaceX打造的卫星互联网星座组网成员之一。这类卫星部署在近地轨道,旨在为全球提供高速低延迟互联网服务,尤其覆盖偏远地区,进一步推进星链星座的全球覆盖进程。

Basic Information
目录编号:
66888
目录名称:
STARLINK-35919
国际标识:
2025-283L
轨道中心:
EARTH
卫星名称:
星链-35919
卫星全名:
星链-35919(STARLINK-35919)
卫星状态:
在轨 (已飞行275 天)
发射日期:
2025-12-04 UTC
国别 :
美国 (US)
星等 :
--
Orbit Information
数据来源 国际轨道数据
星历时间: 2026-09-05T15:05:50+0800
10小时前
查看轨道信息
半长轴: 6840.843km
偏心率: 0.0001206
轨道倾角: 53.159°
近地点辐角 86.109°
升交点赤经 267.011°
平近点角 274.005°
近地点: 461.88km
远地点: 463.532km
周期: 93.848分钟
每日圈数: 15.343994
Detailed Information
固有亮度:
5
最大亮度:
2.5
卫星平台:
Starlink V1.0
覆盖范围:
全球
运营商:
太空探索技术公司
运营商所在国:
美国
制造商(研发单位):
太空探索技术公司
制造商所在国:
美国
使用方式:
暂无
Satellite Introduction
Starlink 计划是 SpaceX 推出的全球卫星互联网项目,通过发射低轨道卫星,为全球尤其是偏远地区提供高速、低延迟的互联网服务。自 2019 年起,Starlink 已部署数千颗卫星,旨在缩小全球数字鸿沟,推动互联网普及。该项目还为军事、航空等行业提供通信支持,带来广泛经济效益。
2D Orbit Map
3D Orbit Map
Orbit Altitude Analysis Chart
Orbit Inclination Analysis Chart
Orbit Comprehensive Analysis Chart
View Comprehensive Chart
Conjunction Data List
Event ID Objects TCA Miss Dist (km) Collision Risk Probability Collision Risk Index (CRI) Action
CDM_260907-094905-927206-688821
2026-09-07T
09:49:15+0000
0.430 km
远距离
2.514773E-4 高风险 0.83
CDM_260907-081505-927206-688821
2026-09-07T
08:15:27+0000
1.805 km
极远距离
3.301657E-6 低风险 0.45
CDM_260907-112305-927206-688821
2026-09-07T
11:23:02+0000
2.021 km
极远距离
2.439485E-6 低风险 0.43
CDM_260907-202006-059306-688821
2026-09-07T
20:20:21+0000
2.423 km
极远距离
1.264089E-6 低风险 0.37
CDM_260906-064605-264406-688821
2026-09-06T
06:46:28+0000
2.868 km
极远距离
1.106863E-6 低风险 0.36
CDM_260907-180904-347706-688821
2026-09-07T
18:09:37+0000
2.955 km
极远距离
1.030339E-6 低风险 0.35
CDM_260907-184705-113506-688821
2026-09-07T
18:47:50+0000
2.860 km
极远距离
9.056127E-7 极低风险 0.34
CDM_260906-153305-480606-688821
2026-09-06T
15:33:45+0000
2.543 km
极远距离
6.131535E-7 极低风险 0.31